Location: Newark
(6.1167°N, 1.2167°E)
Time: 16:46:19
(UTC+00:00)

OTV 5 (USA 277) - Visible Passes

Search period start: 15 October 2019 00:00
Search period end: 25 October 2019 00:00
Orbit: 310 x 324 km, 54.5° (Epoch: 08 October)

Date Brightness Start Highest point End Pass type
(mag) Time Alt. Az. Time Alt. Az. Time Alt. Az.
21 Oct ? 18:23:19 10° SSE 18:24:48 15° SE 18:24:48 15° SE visible
22 Oct ? 18:36:44 10° SSW 18:39:26 81° ESE 18:40:01 49° NE visible
23 Oct ? 18:52:00 10° WSW 18:53:55 17° NW 18:55:13 13° NNW visible
